CDT,Max TemperatureF,Mean TemperatureF,Min TemperatureF,Max Dew PointF,MeanDew PointF,Min DewpointF,Max Humidity, Mean Humidity, Min Humidity, Max Sea Level PressureIn, Mean Sea Level PressureIn, Min Sea Level PressureIn, Max VisibilityMiles, Mean VisibilityMiles, Min VisibilityMiles, Max Wind SpeedMPH, Mean Wind SpeedMPH, Max Gust SpeedMPH,PrecipitationIn, CloudCover, Events, WindDirDegrees
2013-3-1,40,36,33,37,34,32,100,96,83,30.09,30.05,30.02,10,5,1,14,6,16,0.05,8,Rain-Snow,322
2013-3-2,34,32,31,33,30,24,100,88,74,30.18,30.12,30.05,10,8,2,16,9,21,0.00,8,Snow,336
2013-3-3,41,33,25,31,22,15,96,66,36,30.19,30.14,30.10,10,10,10,12,6,17,0.00,4,,316
2013-3-4,56,44,32,36,29,22,88,55,39,30.13,29.99,29.83,10,10,10,16,5,22,0.00,6,Rain,140
2013-3-5,51,42,33,50,38,27,99,86,59,29.98,29.85,29.73,10,8,1,31,9,43,0.09,8,Rain-Snow,283
2013-3-6,36,34,32,30,29,28,84,79,74,30.34,30.22,29.98,10,10,7,23,16,34,0.00,8,Snow,332
2013-3-7,41,36,29,32,29,28,96,81,67,30.42,30.38,30.34,10,10,7,8,4,,0.00,6,,43
2013-3-8,54,40,27,36,31,27,99,73,42,30.46,30.38,30.29,10,9,5,14,4,18,0.00,0,,87
2013-3-9,65,51,37,38,34,32,81,53,32,30.29,30.14,29.98,10,10,10,12,5,,0.00,2,,153
2013-3-10,70,62,55,57,43,37,100,55,35,29.98,29.88,29.74,10,9,3,25,12,32,0.62,3,Rain,186
2013-3-11,57,48,39,57,42,33,100,85,72,30.00,29.83,29.75,10,9,3,21,11,26,1.19,8,Rain,252
2013-3-12,52,42,32,34,31,26,94,65,37,30.16,30.08,30.00,10,10,10,14,7,22,0.00,3,,289
2013-3-13,40,34,28,28,25,22,86,66,54,30.43,30.32,30.17,10,10,2,20,10,28,0.00,5,Snow,325
2013-3-14,44,34,24,36,28,23,96,80,46,30.42,30.34,30.17,10,10,10,12,3,17,0.00,3,Rain,191
2013-3-15,73,52,32,52,42,31,97,67,39,30.17,29.95,29.77,10,10,10,23,5,29,0.00,1,,214
2013-3-16,72,58,44,53,48,41,87,65,52,30.00,29.84,29.73,10,9,5,22,17,31,0.00,1,,302
2013-3-17,43,42,41,44,42,41,100,99,87,30.05,29.96,29.79,10,6,2,17,11,22,0.89,8,Rain,61
2013-3-18,54,46,37,53,44,36,100,93,77,29.97,29.78,29.65,10,8,0,23,10,30,1.71,7,Rain,281
2013-3-19,50,42,33,37,28,22,96,61,34,30.21,30.14,29.99,10,10,10,16,7,22,0.00,1,,319
2013-3-20,43,35,27,32,25,18,93,68,46,30.19,30.14,30.10,10,10,10,21,7,30,0.00,1,,317
2013-3-21,38,30,23,26,20,15,81,64,47,30.11,30.07,30.01,10,10,10,10,6,9,0.00,1,,356
2013-3-22,43,36,30,33,25,20,86,62,42,30.07,30.04,30.00,10,10,10,8,2,,0.00,7,,105
2013-3-23,57,48,39,40,34,28,82,60,46,30.03,29.93,29.76,10,10,7,13,6,18,0.00,6,Rain,72
2013-3-24,47,42,35,46,40,32,100,93,74,29.79,29.58,29.43,10,7,2,24,11,34,0.32,8,Rain-Snow,7
2013-3-25,39,36,33,34,32,31,97,89,75,30.13,29.90,29.66,10,6,1,24,17,38,0.00,8,Snow,298
2013-3-26,42,37,32,32,31,27,95,77,61,30.35,30.25,30.13,10,10,5,14,9,20,0.00,7,Snow,316
2013-3-27,50,39,28,32,28,24,92,68,38,30.41,30.36,30.32,10,10,10,9,4,17,0.03,0,,306
2013-3-28,57,44,32,42,34,30,96,69,40,30.41,30.34,30.29,10,10,10,8,2,,0.00,4,,58
2013-3-29,52,48,43,49,44,32,100,89,55,30.31,30.26,30.21,10,8,1,7,3,,0.11,8,Rain,121
2013-3-30,58,50,41,51,47,41,100,88,65,30.22,30.11,29.91,10,6,0,10,3,,0.40,6,Fog-Rain,135
2013-3-31,64,57,50,53,50,46,100,86,53,29.96,29.89,29.87,10,8,1,12,5,16,0.02,5,Rain,260